GFSSW_250_spd_021.txt.gz
Wind_Speed
39 39 37 38 37 37 35 34 31 30 30 28 27 26 25 23 23 24 25 25 25 24 23 24 22 22 22 22 23 20 18 18 17 17 19 21 20 16 10 9 16 14 17 12 9
41 40 39 37 38 36 35 34 32 31 30 29 28 26 25 25 24 23 26 25 24 23 24 23 22 21 22 22 23 22 21 20 18 21 21 24 24 23 16 11 12 14 19 23 24
42 42 41 39 38 37 37 35 33 32 30 29 27 27 28 27 27 26 25 24 24 25 24 22 21 22 21 21 24 21 20 20 21 21 23 24 26 26 26 20 18 19 22 27 27
42 42 41 40 39 39 38 35 34 33 32 31 29 28 27 28 26 27 26 26 25 24 24 22 22 22 21 22 22 22 22 23 22 22 26 27 27 28 29 29 25 27 29 30 31
44 43 42 41 40 40 38 37 35 33 32 32 30 29 29 27 27 29 28 27 27 26 25 22 24 22 21 25 25 27 25 24 23 22 26 29 29 31 29 28 31 31 33 35 35
47 44 44 42 41 41 40 39 36 35 33 33 32 31 30 27 28 28 28 27 27 26 25 26 28 26 28 28 30 31 30 30 30 30 32 33 34 36 34 30 30 32 34 37 38
49 47 45 43 42 43 43 41 38 38 36 34 33 34 33 30 29 29 28 29 29 28 29 29 30 29 30 32 33 33 31 30 32 34 32 34 38 39 36 37 36 37 38 38 40
51 51 49 46 44 44 44 43 41 39 39 36 36 37 38 36 33 31 31 30 31 32 33 34 34 35 35 36 35 34 35 33 31 32 33 34 40 40 38 37 36 37 41 43 42
55 52 51 48 46 44 46 45 42 41 41 40 40 38 37 38 35 34 33 33 33 34 35 35 34 36 38 38 37 38 36 40 41 39 36 35 39 44 39 36 36 36 37 37 40
58 55 53 50 48 48 46 44 43 43 42 43 43 40 40 41 38 37 37 36 37 39 40 39 38 39 41 38 39 40 39 41 43 43 39 37 37 38 41 40 39 39 39 37 40
60 58 56 52 53 52 48 47 48 48 47 45 44 42 43 42 42 41 40 40 40 40 40 42 42 46 45 44 44 44 43 42 45 46 41 40 38 39 41 43 45 45 46 46 46
61 61 60 57 55 55 53 51 53 52 51 49 46 45 45 43 43 45 46 44 44 42 42 43 43 49 49 48 47 47 46 47 47 46 45 45 41 48 51 51 51 51 54 55 58
60 63 63 60 59 57 58 60 60 57 53 51 49 47 47 47 47 48 49 47 48 47 48 44 46 48 48 46 44 43 46 47 47 50 49 45 43 50 53 56 61 59 62 61 62
59 63 65 62 61 62 64 62 63 61 53 52 54 49 50 52 49 54 51 50 50 51 49 46 47 45 44 46 43 40 45 45 51 50 48 49 51 49 58 59 62 66 70 70 70
66 64 66 65 63 65 65 64 64 60 51 48 51 53 54 55 53 54 51 48 46 47 47 45 42 43 45 47 48 49 50 52 52 53 49 50 54 53 56 59 60 62 65 69 69
62 63 66 65 69 69 66 67 64 62 49 47 48 54 55 52 50 49 48 43 46 47 49 48 48 50 52 49 47 45 43 44 44 47 39 46 47 40 50 56 52 59 64 65 72
69 65 65 69 66 68 70 69 69 59 54 53 51 53 54 52 52 50 49 48 48 47 49 49 52 56 54 57 63 60 59 64 55 54 49 53 50 56 59 65 64 71 70 72 80
68 70 71 70 73 71 71 74 72 61 62 58 57 59 56 56 56 55 56 56 57 56 58 58 56 58 59 58 65 68 73 77 79 75 72 69 63 70 68 76 77 84 90 91 93
68 67 74 71 75 75 79 83 65 67 64 62 63 61 64 64 63 64 63 64 67 64 66 66 68 72 72 71 74 77 84 84 84 88 90 74 68 65 79 87 90 91 102 102 103
70 72 72 73 77 79 84 82 75 70 70 71 70 71 68 66 63 64 65 66 70 74 73 71 69 71 72 75 75 78 75 88 96 99 91 87 81 80 87 96 100 105 111 117 121
78 78 74 75 77 83 86 76 68 70 75 79 78 76 71 71 71 68 71 70 73 79 84 76 74 72 77 77 75 78 75 87 85 88 95 94 82 90 95 103 106 111 119 123 125
84 85 78 81 87 88 84 79 68 68 76 78 78 81 81 81 81 79 78 84 82 86 91 93 93 89 80 76 81 89 87 90 91 91 96 100 90 100 104 108 112 118 125 127 137
89 88 89 89 95 94 89 84 79 78 79 81 82 83 84 85 87 89 91 90 92 92 86 95 102 96 92 97 90 91 97 97 98 104 101 108 105 110 112 115 122 127 131 135 137
93 95 99 100 102 96 93 92 88 88 88 89 91 89 89 88 89 93 97 97 99 92 90 97 94 101 99 105 100 98 101 104 107 110 111 113 116 119 122 128 129 131 135 136 138
100 101 101 100 94 93 98 94 93 93 92 96 98 94 98 100 99 89 90 92 95 91 100 104 98 106 105 108 106 106 105 109 115 117 122 122 124 124 132 133 134 140 140 143 142
101 100 96 99 102 102 102 102 103 101 95 98 97 98 90 96 103 95 99 90 92 98 101 103 107 110 107 111 111 113 109 111 115 124 131 134 131 136 142 140 141 148 150 148 149
100 101 101 100 103 106 109 105 108 111 112 107 107 108 104 106 110 109 109 107 106 105 108 109 111 112 117 117 118 116 112 119 123 125 137 142 141 145 147 147 152 156 155 154 150

GFSSW_250_spd_024.txt.gz
Wind_Speed
40 39 39 39 38 37 35 36 36 36 33 32 31 28 27 27 25 24 24 24 24 23 25 25 23 21 19 17 19 18 17 17 16 16 16 17 16 13 10 13 20 21 20 16 9
42 41 41 40 39 38 38 39 39 38 36 33 31 31 29 28 26 24 24 24 24 25 25 23 23 21 18 18 20 19 17 16 16 16 17 17 17 16 13 16 19 23 25 23 22
45 44 43 42 41 42 41 39 39 38 37 35 33 32 30 29 28 27 26 25 26 25 24 24 22 22 19 21 21 18 17 17 16 16 16 19 19 17 18 19 20 23 28 29 27
46 46 46 44 44 44 43 41 40 39 39 36 35 33 32 30 27 29 28 27 25 25 26 26 24 23 21 21 21 20 19 19 20 20 21 20 19 20 21 24 23 25 27 29 32
47 48 48 47 45 45 43 42 41 41 40 38 36 34 33 31 27 29 29 28 27 27 27 26 25 25 23 24 26 25 22 23 23 25 27 27 26 26 26 27 29 31 30 28 30
51 50 49 48 46 46 45 43 42 42 42 38 36 34 32 31 30 29 29 29 28 27 27 27 27 27 28 28 29 27 27 28 27 28 30 31 31 28 27 28 29 31 33 33 32
55 53 53 50 48 46 46 44 44 43 43 39 37 35 33 30 31 30 30 30 30 28 27 27 28 29 29 30 31 31 34 34 32 30 29 30 32 31 31 32 33 33 34 35 36
54 53 53 54 51 48 47 46 45 46 45 42 38 37 36 34 33 33 34 33 31 31 29 29 30 33 33 34 33 32 34 36 35 34 34 35 41 36 36 35 37 37 37 35 36
54 54 53 54 54 52 50 48 48 48 47 44 42 39 38 40 36 37 37 34 33 34 34 32 32 35 38 34 33 35 37 39 38 37 36 36 43 42 39 39 41 40 38 35 36
54 54 56 56 56 55 54 52 49 48 48 46 44 41 43 42 40 37 37 36 36 37 37 37 37 38 39 35 36 37 38 39 43 41 39 39 38 42 42 42 40 37 38 40 44
56 56 55 55 58 58 56 55 53 51 49 47 45 43 43 44 43 40 39 39 41 41 40 39 37 42 38 37 37 39 39 41 47 44 40 41 40 42 45 44 42 45 46 48 50
58 57 59 56 56 61 61 57 57 54 52 49 47 47 46 46 44 44 44 42 43 43 42 40 38 42 40 41 41 42 41 43 42 44 40 41 40 42 45 48 49 49 51 50 53
61 59 60 58 57 59 62 63 62 60 56 53 51 50 49 50 50 49 48 46 45 43 45 41 41 45 45 44 44 43 43 41 39 42 40 41 43 51 52 55 57 56 57 59 62
65 61 60 60 59 59 62 66 66 63 59 55 55 50 52 53 48 55 52 51 49 50 48 42 48 46 48 49 47 42 42 40 40 40 43 45 47 49 57 62 63 62 61 62 65
65 63 62 60 59 65 62 63 67 69 61 57 58 58 59 57 55 57 57 53 51 53 53 50 47 48 47 46 46 45 46 44 44 48 49 47 47 44 51 54 55 57 56 58 59
67 66 63 57 58 67 69 66 70 71 58 55 57 59 61 63 57 57 60 59 57 56 55 53 49 49 48 47 44 48 53 53 48 48 42 57 58 58 60 61 69 62 68 73 79
69 68 67 61 60 64 68 72 72 64 60 61 59 63 65 64 62 58 56 55 56 55 54 53 51 50 48 50 50 53 51 53 53 58 56 59 57 64 70 72 82 88 89 87 82
70 73 71 67 68 68 67 69 71 60 62 64 66 66 63 65 65 65 62 58 56 56 57 56 58 59 58 59 60 60 59 63 58 60 62 63 63 67 65 71 76 80 87 91 89
71 74 73 70 74 76 76 78 59 62 64 66 66 71 64 68 67 67 65 62 60 61 63 63 62 63 64 67 66 67 69 70 63 58 55 59 63 61 67 71 76 82 80 76 77
75 74 74 75 75 78 83 80 69 69 68 70 70 70 68 70 71 71 69 64 65 67 68 67 69 69 69 67 68 74 76 80 83 82 76 72 75 74 74 81 86 87 86 89 90
78 80 73 78 80 84 88 82 75 72 70 71 72 74 73 75 74 73 72 71 72 74 76 73 71 70 72 70 71 73 76 84 90 89 90 85 82 91 98 100 93 90 94 91 95
85 87 79 81 86 86 87 80 78 70 71 71 72 73 75 79 80 80 79 80 79 82 83 83 79 77 77 81 84 86 85 89 91 87 88 93 79 91 97 105 101 98 96 98 103
92 91 86 89 92 89 88 88 83 76 72 70 72 75 77 78 79 79 80 81 84 86 87 89 87 85 84 84 84 83 87 91 89 92 91 101 84 89 92 97 103 101 101 104 108
97 98 95 95 94 93 91 89 88 84 81 78 77 80 82 81 79 78 80 81 83 87 88 90 89 88 87 88 82 80 84 89 92 93 97 97 93 96 104 111 108 108 111 113 116
104 105 102 100 98 95 95 93 91 87 86 87 86 83 87 89 90 92 86 88 89 91 93 93 89 92 94 92 89 89 85 86 91 93 98 94 102 107 114 112 114 116 119 122 126
111 109 105 103 101 97 98 98 95 93 93 92 92 90 93 97 97 98 98 96 98 98 100 100 100 95 96 94 97 97 89 90 99 97 98 108 101 115 117 117 119 123 126 127 131
115 111 108 107 105 106 107 103 100 100 98 93 94 99 101 100 99 97 104 99 102 101 95 99 98 99 97 99 103 96 94 100 103 109 111 113 115 119 122 125 126 129 135 138 139

GFSSW_250_spd_030.txt.gz
Wind_Speed
46 46 45 43 42 40 39 35 34 34 32 31 30 32 31 29 24 24 23 23 23 22 21 19 18 17 14 12 13 10 10 9 8 5 5 7 9 11 10 11 12 14 13 12 10
46 47 46 46 44 42 40 38 37 35 35 34 33 33 31 28 28 26 24 25 25 24 22 21 19 18 17 16 15 12 9 7 4 5 4 3 4 7 9 10 11 13 14 14 14
48 48 47 46 45 46 42 42 39 39 38 36 35 35 33 31 28 27 26 25 24 25 24 23 22 19 18 18 17 14 11 8 7 6 5 4 6 8 9 10 13 14 15 16 16
48 48 50 47 47 44 45 43 43 41 40 38 36 36 34 31 30 28 27 26 26 25 25 24 23 21 20 19 18 14 13 11 9 10 8 7 9 13 13 14 14 13 13 15 18
49 46 47 48 48 46 45 45 44 43 41 41 39 39 37 33 32 31 28 27 28 26 25 23 23 23 21 19 18 15 15 14 13 13 9 12 13 14 15 17 19 19 21 22 24
51 50 48 48 48 49 48 46 46 45 45 41 41 39 37 34 33 32 29 28 27 27 26 24 23 23 20 19 18 16 17 17 18 15 13 15 16 18 18 20 21 23 24 26 28
55 52 50 48 48 49 49 49 47 46 45 42 42 39 37 35 34 33 31 29 28 27 27 25 23 22 21 20 18 17 18 19 19 17 17 19 19 20 21 23 25 26 26 28 30
56 57 52 49 49 48 50 49 50 50 47 43 41 40 39 37 35 34 32 31 29 29 28 27 26 23 24 23 20 20 22 21 18 18 21 22 20 21 23 26 28 28 29 30 30
58 58 56 52 52 51 50 52 51 51 51 49 45 42 39 40 36 34 34 33 31 31 30 29 27 26 27 24 22 24 27 21 19 17 18 21 22 25 27 29 30 30 31 32 33
62 62 59 56 54 54 52 52 53 52 50 49 48 45 43 40 38 35 34 36 34 33 31 31 28 30 32 23 26 28 27 27 22 19 20 23 28 31 30 31 34 32 33 34 34
62 62 63 61 58 56 56 54 52 50 51 51 46 45 44 43 40 37 35 35 38 36 35 33 31 36 28 26 29 29 29 31 26 22 22 25 31 35 33 35 35 34 34 36 37
65 62 61 59 61 58 57 57 59 56 53 49 46 44 45 46 44 43 40 37 39 40 39 36 35 35 32 30 31 32 29 33 31 26 25 29 32 39 35 36 36 37 38 40 42
63 64 63 62 61 59 61 61 61 59 56 53 49 46 48 48 47 47 46 43 42 43 43 37 35 37 35 32 31 33 31 34 31 33 30 32 34 40 39 37 38 38 40 43 46
71 69 66 65 60 63 63 66 64 64 59 49 52 47 46 49 46 52 51 50 46 46 45 40 41 42 40 39 39 32 36 36 35 34 34 37 30 43 43 41 42 42 45 46 46
76 71 63 65 60 64 71 67 64 65 60 54 51 48 50 52 48 53 54 53 50 52 50 46 47 43 42 42 40 37 41 40 39 37 38 40 38 38 47 47 46 44 45 47 47
77 78 72 67 63 67 74 72 70 67 49 53 53 51 54 54 53 53 56 56 55 55 52 51 50 48 46 48 47 44 47 49 45 45 38 48 48 35 48 52 50 48 48 50 54
83 83 81 77 68 77 76 78 75 57 48 46 50 50 51 54 56 58 59 60 59 57 55 57 55 53 53 53 53 50 49 48 48 49 46 50 51 45 49 50 51 53 54 57 59
88 90 90 83 78 79 79 80 72 48 52 52 54 55 54 56 56 58 59 62 62 61 59 56 55 58 57 57 55 52 52 51 52 54 52 51 50 53 57 57 60 61 64 66 71
92 91 92 87 82 80 80 84 56 56 58 59 59 61 63 63 62 60 58 57 56 62 62 59 59 59 58 58 55 53 52 59 57 54 54 55 56 58 61 64 64 65 62 62 65
94 92 92 87 86 82 86 80 64 63 64 65 69 68 68 68 64 62 60 54 55 58 61 59 58 58 59 59 57 57 60 61 61 61 60 59 59 61 63 67 71 74 76 77 75
95 94 88 88 91 94 96 77 72 73 68 67 70 74 69 70 70 63 59 58 58 60 63 61 60 59 62 59 63 65 64 66 69 69 67 65 65 65 69 71 75 77 79 79 79
100 102 89 94 98 98 95 76 79 77 75 73 71 72 66 64 66 68 64 64 65 65 64 64 64 62 61 62 64 64 64 70 73 75 74 71 67 73 74 77 80 84 85 82 78
110 105 100 100 102 97 90 87 85 82 78 76 70 76 73 66 64 64 68 70 73 72 70 72 69 69 67 66 67 70 72 75 78 79 75 79 73 80 80 82 86 87 84 83 83
111 113 110 108 104 100 96 90 87 84 81 80 76 81 76 71 67 63 69 74 75 74 76 79 78 77 73 76 76 75 76 78 79 77 75 71 75 79 83 87 88 88 91 93 94
115 117 113 113 108 108 104 102 96 92 83 84 82 76 77 80 75 66 70 75 77 77 79 82 80 81 79 82 83 81 79 80 80 78 77 73 79 86 90 95 96 94 95 97 99
116 117 113 111 108 105 103 96 91 89 91 90 84 80 83 82 75 74 79 81 80 81 82 85 83 83 79 80 85 82 81 79 78 83 85 88 85 93 98 95 94 96 99 98 99
124 122 121 116 110 108 107 107 102 101 98 94 89 91 90 77 82 85 84 85 84 84 85 86 86 87 89 89 88 93 77 83 82 83 87 90 91 97 99 100 102 97 95 97 96

GFSSW_250_spd_033.txt.gz
Wind_Speed
45 45 46 45 43 42 42 41 39 38 36 34 33 32 30 31 29 26 24 23 23 24 22 21 21 22 20 18 17 14 14 11 9 8 8 9 8 9 8 9 8 7 7 7 9
51 48 47 47 47 45 43 43 41 41 38 36 36 33 33 31 30 28 26 25 24 24 24 24 23 22 21 21 19 16 15 13 10 9 7 7 6 7 6 8 9 10 9 8 9
53 51 50 48 48 48 48 46 44 44 41 39 35 37 35 34 32 30 28 26 25 24 24 25 23 23 23 21 19 16 15 14 13 12 10 9 9 10 9 10 10 11 13 13 12
55 54 52 53 48 48 49 47 46 45 42 41 40 40 37 35 33 32 29 27 26 25 25 24 24 24 25 23 20 18 16 17 15 16 13 11 12 12 10 12 10 11 11 13 14
57 58 55 53 52 51 50 48 47 45 45 43 41 41 39 35 34 34 32 28 28 27 27 27 26 25 25 24 23 20 18 19 18 18 14 14 16 14 13 14 14 16 16 17 19
56 60 57 56 53 54 53 52 48 46 43 44 42 40 38 37 37 37 34 31 29 29 29 28 28 27 26 25 23 20 19 21 21 19 14 15 16 16 17 18 19 19 20 20 22
63 59 58 57 56 53 51 51 50 48 45 45 43 43 40 38 37 36 35 33 31 30 29 29 29 28 26 25 23 21 22 21 21 18 17 16 16 20 20 21 22 22 24 24 25
62 58 58 57 56 55 52 50 50 49 48 47 46 43 42 37 37 37 35 34 32 32 31 30 28 29 28 26 25 23 24 23 23 20 20 19 19 22 23 22 23 23 25 25 27
63 64 61 58 58 58 56 51 51 51 50 47 49 47 46 41 39 37 36 35 33 33 33 31 31 29 30 28 25 25 27 30 25 22 21 22 22 23 23 24 25 27 27 27 29
69 65 64 59 58 57 57 54 52 51 51 51 49 49 49 51 45 41 37 36 34 33 35 35 32 32 35 30 26 29 32 32 28 26 24 25 26 25 25 26 28 28 28 30 31
71 69 69 64 60 59 58 57 55 53 53 54 51 51 48 49 48 46 42 38 37 35 36 39 36 40 35 31 31 34 34 34 32 28 26 28 30 29 29 30 31 31 28 29 31
73 71 70 69 65 62 60 59 59 56 57 55 52 50 51 51 48 47 45 41 40 40 37 39 39 43 38 35 34 35 35 38 35 32 29 31 31 34 29 33 34 32 33 33 32
78 76 74 69 67 64 65 64 64 64 59 58 54 51 50 50 48 46 45 45 47 45 45 40 37 44 42 39 38 37 35 38 36 32 33 33 32 33 38 34 37 37 36 37 35
81 79 78 75 68 69 68 72 69 68 65 53 55 51 51 54 50 50 52 53 52 51 50 41 40 47 45 42 43 39 37 40 38 35 36 32 30 35 42 39 40 42 42 41 40
85 84 81 79 70 64 72 76 72 71 70 58 51 49 51 56 51 53 57 55 51 52 52 47 48 49 49 48 47 41 42 44 42 39 38 35 35 37 44 47 46 47 49 49 44
94 91 86 83 77 72 74 76 76 80 60 58 55 52 55 57 56 56 59 58 56 56 56 55 54 54 53 53 48 47 45 46 43 39 36 41 44 37 42 51 50 54 55 56 52
96 92 91 89 81 84 83 83 84 78 57 55 56 57 57 57 58 60 60 59 58 56 55 61 58 59 58 56 53 51 53 50 46 42 40 44 48 39 43 52 55 57 60 59 59
102 101 93 87 85 89 89 90 95 61 61 59 64 64 60 57 58 61 62 60 58 60 62 61 62 61 60 58 56 55 55 56 53 51 48 45 42 41 50 52 57 59 62 63 64
107 105 102 94 92 93 93 99 83 59 70 72 72 66 65 65 62 62 61 59 56 57 59 60 60 58 59 60 59 55 55 62 60 56 53 49 47 47 51 56 56 59 62 64 65
116 108 101 97 100 100 105 100 83 75 84 80 73 71 68 67 67 67 65 61 59 61 65 63 63 61 56 58 60 62 62 66 65 62 59 53 51 51 55 58 61 63 64 67 70
121 119 105 105 106 106 108 99 83 85 86 85 72 72 71 70 69 66 64 66 66 65 68 67 66 63 58 58 62 62 62 64 65 63 63 59 57 58 59 60 64 66 69 72 72
117 123 113 110 114 112 113 88 94 91 90 85 80 76 73 74 73 70 67 68 72 73 74 71 70 65 58 59 62 59 61 64 65 64 65 66 56 60 60 64 67 71 75 78 78
120 122 117 118 118 116 108 103 101 96 92 87 80 82 80 77 75 73 71 71 74 72 70 75 75 70 65 60 62 62 68 68 70 71 64 68 56 66 67 69 71 74 77 79 77
123 124 125 119 117 116 112 107 110 102 98 91 86 90 85 84 77 72 72 72 73 72 72 72 73 68 67 73 74 73 73 74 75 73 65 64 68 71 71 73 74 77 79 78 79
133 128 125 121 118 119 120 112 104 105 98 95 92 88 85 89 86 75 75 74 75 76 78 78 75 74 70 75 79 76 76 78 79 70 79 64 74 77 79 78 78 81 81 83 85
136 133 129 130 124 121 116 113 112 102 101 95 90 82 90 88 80 79 82 81 80 81 83 83 81 81 77 75 81 84 81 78 77 78 79 74 69 75 75 83 84 85 85 83 86
138 135 133 134 127 123 122 114 112 109 107 103 95 94 96 84 83 89 90 87 85 84 84 86 86 87 83 83 86 92 70 86 81 80 80 80 71 85 87 88 91 92 90 92 95

GFSSW_250_spd_036.txt.gz
Wind_Speed
52 48 48 46 44 43 42 40 40 40 39 37 38 36 34 32 30 29 28 26 25 23 24 23 22 22 21 19 19 18 16 18 16 15 14 13 12 13 13 10 10 10 9 10 9
56 53 51 49 47 46 45 43 44 41 40 39 39 38 35 33 32 29 29 27 26 26 25 24 23 24 22 20 20 19 18 18 18 17 14 14 13 12 11 12 12 9 9 9 9
57 56 54 51 49 47 47 45 44 45 45 40 41 38 35 34 33 32 30 29 26 27 26 25 25 23 24 22 20 19 20 19 19 18 16 15 15 13 11 12 13 14 13 11 10
59 57 56 55 51 48 48 48 47 45 46 45 44 42 38 35 37 36 33 30 28 26 26 26 25 25 24 24 23 22 21 21 21 21 20 18 18 16 13 14 13 13 11 11 14
62 60 58 55 55 54 50 50 50 49 50 48 45 43 40 37 39 37 35 31 30 28 26 28 27 26 26 25 24 23 23 23 24 25 23 21 22 19 15 16 16 15 14 15 17
64 62 61 60 57 55 53 54 51 49 50 48 45 42 42 41 38 38 35 34 33 34 30 30 29 28 29 28 26 23 24 25 25 26 25 22 23 21 20 17 18 16 17 17 18
66 65 63 61 59 59 56 55 53 52 52 51 47 43 40 40 39 38 36 36 35 32 31 32 32 29 30 30 28 24 25 26 26 28 28 24 25 22 24 20 20 19 20 18 17
68 69 66 64 63 62 61 60 59 55 54 54 50 47 40 42 40 40 37 37 37 34 33 31 32 31 31 30 30 27 27 25 28 28 26 24 25 27 24 23 23 22 21 18 18
73 71 68 69 67 64 62 61 61 58 56 52 48 47 46 44 43 43 39 36 34 36 34 33 32 34 34 32 31 30 27 31 32 28 27 27 27 28 25 27 24 24 23 20 21
73 74 72 71 70 66 63 61 61 58 57 54 49 48 45 48 46 45 46 40 36 35 35 36 33 34 38 35 35 28 32 35 35 31 30 28 30 28 27 28 28 26 26 23 22
76 74 72 73 71 69 66 63 62 59 57 58 50 47 46 49 46 47 49 46 45 42 40 37 36 40 41 37 38 34 36 38 38 30 33 30 31 31 32 31 32 29 29 27 26
80 75 74 72 71 70 66 63 64 63 62 58 52 49 47 48 49 48 48 48 47 46 44 41 40 44 40 41 41 39 40 41 42 33 37 35 33 36 34 38 34 32 30 31 31
84 82 78 73 73 67 69 64 70 69 64 60 55 49 49 49 49 49 50 51 50 49 49 46 46 46 43 42 41 43 41 44 42 38 39 39 33 40 40 37 39 36 33 33 34
87 84 83 81 74 73 68 73 73 73 72 57 55 49 45 53 49 51 56 53 53 55 53 44 49 48 50 43 45 42 45 45 46 42 37 38 29 35 41 43 41 40 40 34 39
93 88 86 87 82 77 77 79 78 78 77 63 54 48 50 54 52 52 57 56 56 60 58 50 53 50 52 55 51 45 48 45 47 44 39 38 36 31 38 38 46 42 39 39 41
98 94 93 88 86 84 82 84 83 85 69 61 59 56 57 58 54 53 57 58 58 57 57 56 54 53 55 57 56 50 52 51 49 46 37 42 43 32 43 43 45 48 46 45 47
101 100 100 93 90 88 90 90 90 90 69 65 65 66 66 62 59 60 58 57 58 58 55 59 54 55 57 59 61 59 58 56 51 47 42 45 45 33 42 46 52 51 50 48 49
110 104 104 99 99 93 98 96 100 81 78 74 77 76 70 66 59 62 63 61 59 58 60 59 57 58 59 62 63 58 60 58 58 55 50 47 42 43 46 47 52 54 54 52 51
117 113 108 105 102 100 109 105 100 84 79 80 87 86 79 73 68 63 62 64 64 63 62 61 60 60 60 62 62 55 54 60 60 59 55 49 46 46 46 54 55 55 56 56 56
126 119 115 108 108 109 109 117 95 94 97 92 91 84 82 80 78 71 68 62 63 64 68 69 68 63 61 62 60 60 60 63 64 62 59 54 53 48 52 57 58 57 60 60 60
132 132 120 112 114 117 118 112 97 99 96 98 90 89 87 86 79 79 69 64 66 67 72 73 71 65 63 59 63 63 58 60 62 63 62 60 55 56 55 58 61 62 63 63 65
139 136 125 120 127 122 121 109 104 106 102 98 97 93 89 89 84 77 73 69 69 71 70 73 73 67 66 64 66 65 61 63 63 61 60 61 46 56 56 55 59 63 65 67 67
132 133 130 128 130 127 121 117 115 109 102 97 98 95 90 90 85 75 75 74 74 74 75 77 75 72 72 67 64 68 70 69 69 64 52 61 44 57 61 59 60 62 63 65 66
133 132 131 139 136 129 125 117 121 112 113 106 104 102 99 96 86 79 77 79 81 78 80 83 80 75 71 70 72 68 69 67 69 62 64 60 62 63 65 64 65 66 68 69 70
139 135 132 131 140 137 134 124 123 121 115 109 110 109 100 100 95 83 79 81 82 82 87 85 80 78 75 75 73 70 71 67 65 61 71 56 67 66 69 71 72 71 70 71 73
135 136 137 133 131 132 137 134 136 124 124 120 113 105 105 103 92 86 91 88 85 86 89 88 81 83 85 78 78 79 76 67 68 69 73 67 62 72 75 75 75 74 75 75 77
124 128 134 137 133 136 135 134 133 127 134 125 120 115 111 103 98 102 101 97 95 91 90 93 91 90 87 87 87 90 64 82 80 76 79 76 67 79 78 77 77 77 79 79 81

GFSSW_250_spd_042.txt.gz
Wind_Speed
62 60 59 57 56 52 50 49 49 49 48 48 45 43 43 42 39 36 33 31 29 26 25 24 24 23 22 22 20 20 19 19 22 19 18 15 18 17 18 18 17 16 14 15 14
64 63 62 59 57 55 51 50 48 49 49 46 45 45 45 45 42 40 36 32 29 28 25 25 25 24 24 24 23 23 22 20 22 22 18 19 17 19 17 17 18 18 17 16 17
66 65 63 61 59 56 54 51 50 48 48 46 47 47 45 44 44 42 35 31 30 29 26 25 26 25 24 25 25 25 24 23 22 22 18 21 17 21 18 17 19 19 19 20 19
71 67 67 65 62 59 56 55 53 51 50 49 49 47 45 45 43 39 35 33 32 30 27 26 27 26 26 24 27 26 25 25 24 25 22 21 21 22 20 19 21 22 21 21 20
75 71 68 67 65 63 60 58 56 54 53 50 49 47 46 46 44 40 38 36 34 32 31 29 27 27 27 26 28 27 26 27 24 25 25 21 23 23 22 25 23 24 23 24 23
74 76 72 70 68 67 65 63 60 56 56 53 52 49 48 48 46 43 40 38 38 36 37 33 31 27 30 28 29 29 29 29 27 25 26 25 26 23 26 28 26 25 26 25 24
73 75 75 73 71 69 68 66 64 61 57 56 54 52 50 49 50 48 46 41 41 40 38 35 34 32 33 33 32 31 30 30 26 28 29 27 28 23 28 28 29 29 28 28 27
74 73 76 74 74 72 71 69 68 64 61 59 57 54 53 52 51 49 46 44 41 40 38 38 36 35 34 35 35 32 29 30 30 30 30 27 29 26 26 28 32 33 31 30 30
76 76 75 76 75 74 73 71 69 67 66 63 59 55 52 51 52 48 47 43 39 38 38 38 37 36 36 37 37 32 30 33 34 30 30 29 33 26 29 29 33 36 35 33 32
79 77 77 76 76 77 74 75 72 69 67 65 61 60 57 57 53 50 46 44 40 40 41 40 37 36 39 39 35 33 33 34 35 33 30 32 35 32 30 31 34 37 36 36 35
84 79 80 79 76 74 78 77 74 74 71 68 64 59 60 55 55 49 47 46 43 42 42 42 40 45 45 39 37 37 36 34 39 35 32 34 34 35 33 33 36 38 38 39 39
91 88 83 84 80 77 79 75 78 76 75 73 68 62 62 61 57 54 53 51 49 48 45 46 45 49 48 47 45 45 42 42 39 37 34 37 34 36 34 37 39 38 40 41 40
99 94 89 86 82 84 79 80 79 80 75 73 67 65 65 60 58 55 54 51 52 52 49 46 47 51 52 52 51 51 49 48 42 40 36 38 32 35 41 37 42 41 43 43 44
102 99 97 95 89 85 85 82 80 81 78 71 69 66 66 66 61 57 57 59 57 54 57 50 52 54 56 53 57 54 57 52 49 42 37 37 29 36 43 45 41 47 45 46 46
103 102 108 99 94 92 97 94 85 83 85 76 72 66 64 67 58 62 62 60 57 61 62 53 56 57 55 58 61 60 61 56 51 44 37 34 37 34 46 47 49 47 47 48 46
109 108 105 105 100 99 98 99 98 94 83 79 74 69 68 66 65 68 71 66 62 64 62 60 60 61 60 64 66 65 64 61 52 46 34 39 41 27 45 53 54 51 49 49 49
115 111 111 106 103 108 102 102 101 102 90 88 81 77 77 74 69 72 71 67 68 69 66 67 68 68 68 69 70 70 68 60 54 50 40 46 41 29 48 54 54 55 52 52 52
119 121 115 110 109 111 112 108 110 104 101 92 90 86 84 80 77 77 74 72 68 70 75 75 72 72 71 72 75 74 69 62 61 55 46 44 36 39 45 54 55 55 57 56 55
116 122 121 117 116 116 120 120 110 106 105 104 96 94 89 85 85 86 86 81 79 76 79 82 78 75 73 74 76 71 67 71 67 57 49 45 44 43 45 52 56 61 63 63 62
126 124 118 119 122 124 128 124 114 108 109 111 107 98 97 94 92 86 87 82 80 81 85 82 79 75 76 76 73 71 72 71 70 64 53 43 47 48 51 53 58 62 65 66 64
134 130 120 121 125 128 136 129 115 113 114 114 109 107 101 98 96 94 88 81 77 81 86 84 81 77 77 73 73 77 74 74 75 71 62 54 49 52 53 57 62 63 65 66 64
130 134 129 129 130 134 135 131 118 116 121 117 113 110 107 106 99 99 94 88 87 87 86 86 87 83 81 82 82 81 78 79 78 74 71 64 42 52 55 59 61 62 62 61 61
135 130 132 138 138 135 136 134 128 124 119 119 117 111 107 109 111 102 95 94 95 93 87 88 88 86 84 83 82 83 80 83 84 82 70 73 47 53 57 60 63 64 64 63 64
134 133 135 136 137 139 136 134 134 128 124 122 117 117 118 116 112 107 100 98 98 95 95 97 96 91 85 84 86 85 83 83 86 84 73 68 59 59 60 62 66 69 65 64 62
132 129 134 137 134 133 136 133 133 134 132 125 123 123 119 119 117 111 105 106 102 103 102 103 101 98 92 91 91 87 85 85 85 75 84 61 73 55 61 67 75 72 69 67 67
122 121 133 135 135 137 135 131 139 130 136 134 132 124 119 124 122 114 110 110 110 110 108 106 105 104 101 95 94 93 92 86 85 82 86 74 73 69 71 77 75 75 75 72 69
116 120 126 130 135 137 140 135 135 134 139 130 130 129 132 128 119 118 126 121 121 117 114 112 109 107 106 104 105 106 79 94 94 91 90 87 74 78 75 77 77 78 77 76 75

GFSSW_250_spd_045.txt.gz
Wind_Speed
68 71 68 67 66 67 63 63 65 60 55 57 53 49 49 47 44 43 43 44 44 40 35 30 28 27 27 25 23 23 21 21 19 20 22 19 19 19 17 12 13 12 13 14 14
70 67 65 64 63 65 61 59 58 57 57 53 50 47 46 44 44 45 46 46 43 38 35 33 26 26 26 24 24 23 21 22 24 22 20 22 20 20 17 15 16 14 13 16 14
73 70 66 65 64 63 63 60 61 57 55 52 48 50 48 47 47 46 46 45 43 40 36 33 25 25 26 24 24 24 22 23 24 24 23 22 22 23 17 19 18 16 16 14 16
75 73 70 68 68 66 64 62 61 59 56 54 53 52 50 49 49 47 47 45 45 43 37 31 26 26 26 27 26 25 24 24 25 24 24 25 24 24 20 22 22 18 18 17 15
77 76 74 72 70 70 68 66 64 61 58 58 56 54 53 51 49 48 47 46 47 43 36 31 29 28 28 28 28 28 27 25 24 25 25 26 26 23 23 24 24 22 21 21 19
79 77 77 76 73 72 70 69 66 64 60 59 59 54 54 53 50 49 49 47 47 42 36 33 32 33 32 31 30 32 30 28 24 26 28 27 27 23 24 26 24 26 26 23 22
79 80 79 78 77 74 72 71 68 66 63 63 59 58 57 53 52 51 50 48 48 43 37 35 37 36 35 33 34 34 33 30 27 29 27 27 29 23 27 26 27 27 27 28 26
72 80 81 80 79 78 74 74 71 68 66 64 64 61 58 56 54 54 52 51 50 46 44 40 39 39 38 37 37 36 33 31 31 32 28 26 30 26 26 27 28 28 29 29 30
71 74 80 83 81 81 78 76 74 72 70 67 65 62 60 58 57 55 54 51 51 49 45 40 39 39 40 40 40 37 35 36 34 33 30 28 33 26 27 28 30 29 31 32 32
79 76 79 84 85 82 81 79 77 75 74 72 70 66 63 61 60 58 56 55 53 50 45 43 39 39 43 42 40 37 38 38 37 35 30 30 34 30 28 30 32 32 30 32 35
89 81 78 83 86 84 82 82 82 80 78 75 73 70 68 64 61 59 55 54 53 53 47 42 39 45 46 44 44 42 39 39 43 36 30 33 34 33 30 33 35 35 33 35 35
98 89 84 78 84 84 84 82 87 84 82 79 75 72 72 70 66 63 61 58 56 53 49 46 44 50 45 46 47 48 47 46 45 41 33 36 32 37 34 35 39 41 38 38 35
101 100 92 87 82 86 87 87 88 86 83 81 79 76 75 74 72 69 67 64 62 60 58 55 55 54 53 54 53 53 51 54 51 48 39 36 30 37 42 41 42 44 47 41 39
104 98 99 95 92 91 88 89 86 86 83 84 83 80 79 76 72 70 68 66 65 64 66 60 61 61 60 54 57 53 60 58 58 53 45 38 27 34 43 47 48 49 46 48 45
103 102 103 101 97 97 98 94 91 88 90 84 82 78 80 79 73 76 75 72 70 71 71 60 61 59 59 61 63 58 62 62 61 54 41 37 37 31 42 44 57 53 46 47 50
107 107 104 104 101 98 100 100 101 100 95 88 82 82 79 80 77 78 80 78 75 73 69 64 62 63 62 65 68 66 65 68 66 57 39 41 47 26 41 51 60 60 51 49 48
111 109 111 106 104 107 105 101 101 106 99 96 89 88 85 83 81 78 79 78 75 76 71 71 68 67 69 69 71 72 73 71 67 65 49 41 40 29 40 56 63 64 56 52 50
112 109 113 109 108 112 111 109 114 115 107 100 96 94 88 86 83 83 83 82 78 75 74 76 73 71 72 75 77 76 73 72 74 71 57 41 34 39 43 51 63 60 62 58 56
114 112 114 115 117 114 118 122 119 109 108 105 101 102 96 93 93 90 87 82 79 77 79 79 77 76 78 79 80 76 75 76 82 73 64 47 41 42 48 49 53 59 60 62 61
120 117 110 115 118 123 129 125 120 115 111 111 111 105 102 98 98 95 94 88 86 84 85 85 85 83 82 82 81 80 80 82 83 79 73 54 46 46 51 46 51 58 60 61 61
125 124 116 122 123 125 133 131 121 115 118 117 113 110 107 106 104 99 96 90 89 89 92 90 90 87 87 84 84 86 82 83 83 80 75 65 52 51 51 50 52 59 63 63 63
131 126 125 129 132 129 133 131 124 123 123 120 119 116 109 110 110 108 100 93 93 94 96 95 97 94 89 88 87 85 82 85 84 80 81 75 52 52 53 55 57 64 69 66 65
137 133 131 135 138 132 129 132 131 123 127 127 122 119 114 114 116 112 103 99 101 99 96 95 99 97 94 91 87 86 85 86 87 86 79 81 58 57 60 60 61 65 71 67 66
134 138 138 140 139 135 132 132 132 129 127 126 128 125 123 123 121 113 110 105 107 105 105 106 104 101 95 93 94 93 92 93 94 90 74 81 67 67 63 65 64 69 73 70 67
128 129 138 142 139 137 133 131 132 132 130 125 128 131 129 128 124 116 112 110 111 110 111 112 110 106 101 99 99 95 94 94 94 84 95 75 84 67 69 66 69 71 77 75 71
120 123 134 135 143 144 140 134 131 132 133 131 131 124 125 130 130 122 120 118 113 116 116 115 114 113 108 104 103 102 99 91 88 85 90 78 80 72 71 76 76 76 78 75 73
113 120 125 126 135 142 139 137 137 134 136 132 129 128 130 127 121 120 125 130 126 121 120 121 121 119 118 110 116 117 97 92 96 92 92 90 73 81 80 79 80 82 80 80 80

GFSSW_250_spd_048.txt.gz
Wind_Speed
70 70 65 61 64 65 63 67 62 66 63 61 61 59 56 57 57 52 54 51 49 50 49 47 48 47 40 36 30 27 24 23 23 23 21 18 18 17 13 13 13 11 9 10 11
70 68 67 64 60 62 59 61 64 64 60 57 57 61 54 52 55 55 53 51 49 45 44 46 48 48 38 34 30 26 25 22 21 21 22 21 18 17 16 14 15 10 11 11 12
73 72 68 66 64 62 58 57 58 57 58 60 57 58 56 55 51 50 49 47 45 43 42 44 48 44 38 35 30 26 25 24 22 20 20 21 20 18 17 20 15 13 12 12 12
75 73 72 67 67 67 62 60 56 56 61 57 59 57 56 55 54 51 49 48 44 43 44 46 44 41 37 34 30 27 26 25 24 23 23 21 21 20 18 20 21 15 14 14 14
80 75 75 74 70 66 66 63 62 60 57 57 55 55 56 54 53 51 50 48 47 48 48 48 45 40 37 32 29 28 27 27 26 26 25 23 23 20 20 22 21 19 17 17 16
68 80 76 76 76 71 70 65 64 62 61 59 57 56 55 57 54 52 50 49 49 49 50 49 47 41 39 33 31 31 30 30 27 28 28 24 24 20 25 22 22 23 23 19 19
66 76 79 77 77 77 72 70 68 65 63 63 61 60 60 57 55 54 55 52 51 50 52 50 48 42 37 34 34 32 31 31 29 30 31 27 27 23 25 24 24 24 25 24 22
73 69 80 78 77 79 79 77 73 70 67 66 65 63 62 60 59 58 56 55 55 53 51 50 48 44 40 39 38 36 33 32 32 33 31 28 29 26 26 27 26 26 26 26 26
82 75 71 80 79 80 80 79 78 75 73 71 69 65 64 62 62 61 55 55 56 55 52 50 48 46 44 41 40 39 36 37 36 34 32 31 34 25 28 29 29 29 28 27 29
90 84 78 74 77 82 81 83 82 80 77 76 72 70 67 68 64 62 62 59 57 56 52 51 49 49 50 45 41 40 40 40 40 38 33 34 35 30 27 32 34 33 30 30 32
96 90 85 81 78 79 82 84 85 84 81 80 76 74 73 70 66 66 62 61 59 56 54 54 51 54 54 45 46 43 42 44 47 41 34 34 34 33 29 34 35 37 36 35 34
98 99 94 88 82 78 84 87 85 86 86 82 79 78 76 74 71 69 67 66 61 58 57 55 54 61 54 50 49 48 45 47 49 45 35 39 34 37 34 36 39 39 40 39 36
99 101 99 93 90 84 79 85 88 88 87 86 83 79 79 78 76 73 70 67 64 62 62 61 61 62 58 58 56 53 48 50 48 49 41 40 31 38 41 38 42 44 41 40 40
101 104 103 102 95 93 86 87 84 87 91 86 86 85 81 81 78 77 75 73 71 68 69 64 64 68 66 59 61 56 59 56 56 53 48 40 26 39 44 42 46 53 49 43 40
108 103 108 106 99 97 95 92 90 90 89 90 89 82 84 84 77 81 80 79 77 77 77 69 71 69 69 70 71 63 66 64 62 61 55 39 34 33 43 43 51 58 58 46 43
102 110 106 107 106 101 100 97 95 99 93 84 87 87 87 87 83 85 85 83 81 82 80 76 75 75 73 74 76 73 70 71 70 66 52 45 53 30 38 44 51 62 61 53 44
97 101 110 109 108 106 107 104 102 107 97 93 92 91 91 91 89 89 89 86 86 85 78 81 79 78 78 77 78 77 77 77 74 67 55 55 57 38 41 45 55 62 64 61 53
103 100 100 112 111 109 110 114 117 108 103 98 93 96 96 94 91 91 90 90 88 85 83 86 82 82 82 83 84 83 79 77 75 71 64 63 58 43 50 47 53 61 61 60 56
107 107 102 102 107 114 117 121 121 115 109 104 97 101 100 102 101 99 94 90 87 86 86 87 87 86 86 86 87 82 80 76 80 74 71 67 66 50 52 55 55 54 63 59 56
111 110 103 107 108 106 117 122 113 118 114 112 109 106 102 102 101 101 99 94 91 91 93 94 90 87 84 86 84 83 81 82 82 80 80 72 68 61 52 54 56 62 60 60 59
121 118 112 113 114 116 115 116 115 112 117 117 116 115 108 108 107 104 100 95 98 97 100 100 97 91 91 88 87 90 88 87 88 88 85 77 67 63 57 55 57 63 66 63 62
130 127 126 124 120 115 113 106 107 119 116 120 121 119 117 114 113 109 104 98 100 100 102 102 104 98 92 91 91 92 88 89 91 88 87 85 69 64 65 63 61 62 65 68 66
133 133 131 133 135 127 116 113 112 112 121 127 124 121 118 120 120 114 108 101 106 105 102 103 107 103 100 93 88 87 86 90 95 96 92 93 69 64 72 70 67 67 68 67 69
140 142 140 137 136 133 130 124 121 115 118 122 125 127 124 122 123 116 112 109 110 107 108 110 114 108 101 97 99 98 96 97 98 99 83 91 74 71 69 71 70 69 70 69 71
128 128 133 138 139 138 137 133 133 130 124 122 123 124 126 131 126 122 113 114 115 112 114 117 117 112 108 108 106 103 102 103 103 93 100 80 87 64 69 69 73 75 78 78 76
115 122 130 133 135 137 140 136 134 130 130 128 128 122 124 126 125 124 123 124 121 117 117 123 121 119 113 109 111 112 112 108 101 98 101 89 92 71 78 82 81 80 83 80 79
111 115 121 125 132 137 131 132 134 136 139 137 134 130 129 128 125 123 124 123 124 124 126 128 126 125 124 115 119 121 108 104 106 104 103 103 89 84 83 84 85 87 85 82 84